Stations météo

réclame
Mon MeteoGroup
Helsingborg, Suède (2611): Température de l'air & dewpoint: 13.01.2018 18:00:00 - 19.01.2018 18:00:00 (CET)Helsingborg, Suède (2611): Vitesse du vent & gusts: 13.01.2018 18:00:00 - 19.01.2018 18:00:00 (CET)Helsingborg, Suède (2611): Direction du vent: 13.01.2018 18:00:00 - 19.01.2018 18:00:00 (CET)Helsingborg, Suède (2611): reduced air pressure: 13.01.2018 18:00:00 - 19.01.2018 18:00:00 (CET)Helsingborg, Suède (2611): visibility: 13.01.2018 18:00:00 - 19.01.2018 18:00:00 (CET)Helsingborg, Suède (2611): Quantités de précipitations: 13.01.2018 18:00:00 - 19.01.2018 18:00:00 (CET)
Date & Time tt [°C] td [°C] ff [km/h] ff [knt] fx [km/h] fx [knt] dd ppp [hPa] vv [km] rr [mm]
19.01.2018 18:00:00 0,9 0,2 5 3 10 5 ESE 1003,7 8 0,0
19.01.2018 17:00:00 1,4 0,5 4 2 12 7 SE 1003,8 10 0,0
19.01.2018 16:00:00 1,4 0,2 8 4 17 9 S 1003,5 11 0,0
19.01.2018 15:00:00 1,3 -0,3 5 3 17 9 SSE 1003,1 12 0,0
19.01.2018 14:00:00 1,3 0,3 10 5 16 9 S 1002,9 7 0,0
19.01.2018 13:00:00 1,3 0,6 4 2 11 6 SSE 1002,7 7 0,0
19.01.2018 12:00:00 1,0 0,3 2 1 11 6 SSE 1002,6 5 0,0
19.01.2018 11:00:00 0,8 -0,4 2 1 8 4 SSE 1002,2 21 -
19.01.2018 10:00:00 0,3 -0,8 2 1 6 3 ESE 1001,6 28 0,0
19.01.2018 09:00:00 0,0 -0,8 3 1 6 3 SE 1001,0 22 0,0
19.01.2018 08:00:00 -0,2 -1,0 0 0 6 3 N 1000,3 24 0,0
19.01.2018 07:00:00 -0,1 -0,8 3 2 5 3 ENE 999,7 19 0,0
19.01.2018 06:00:00 -0,2 -0,9 0 0 6 3 N 999,2 17 0,0
19.01.2018 05:00:00 -0,3 -1,0 0 0 8 4 N 998,6 25 0,0
19.01.2018 04:00:00 -0,2 -0,8 5 3 8 4 NE 998,2 23 0,0
19.01.2018 03:00:00 -0,4 -1,0 4 2 6 3 NNE 997,8 10 0,0
19.01.2018 02:00:00 -0,5 -1,1 3 1 5 3 NNW 997,2 8 0,0
19.01.2018 01:00:00 -0,3 -0,9 0 0 5 3 N 996,5 23 0,0
19.01.2018 00:00:00 -0,2 -0,9 3 2 11 6 NNE 995,8 28 0,0
18.01.2018 23:00:00 -0,2 -0,9 4 2 13 7 NNE 995,5 35 0,0
18.01.2018 22:00:00 0,2 -0,5 8 4 13 7 N 994,8 14 0,0
18.01.2018 21:00:00 0,1 -0,5 8 5 11 6 N 994,0 27 0,0
18.01.2018 20:00:00 0,2 -0,4 7 4 14 8 N 992,9 31 0,0
18.01.2018 19:00:00 0,0 -0,7 6 4 17 9 NNE 991,7 37 0,0
18.01.2018 18:00:00 0,3 -0,4 9 5 18 10 NNE 990,7 41 0,0
18.01.2018 17:00:00 0,6 -0,1 10 6 20 11 NE 990,0 28 0,0
18.01.2018 16:00:00 0,7 0,1 11 6 20 11 NNE 989,0 32 0,0
18.01.2018 15:00:00 1,3 0,6 12 7 21 12 NE 988,4 24 0,2
18.01.2018 14:00:00 1,1 0,5 9 5 21 12 E 988,4 4,7 0,4
18.01.2018 13:00:00 1,4 0,8 8 5 16 9 E 988,5 10 0,0
18.01.2018 12:00:00 1,2 0,6 8 5 16 9 ESE 989,1 6 0,0
18.01.2018 11:00:00 1,5 0,6 9 5 16 9 ESE 990,0 15 0,0
18.01.2018 10:00:00 1,1 0,5 5 3 18 10 ESE 990,6 8 0,0
18.01.2018 09:00:00 1,5 0,8 5 3 18 10 S 991,3 13 0,0
18.01.2018 08:00:00 1,3 0,9 9 5 14 8 S 992,1 11 0,0
18.01.2018 07:00:00 0,4 0,0 5 3 11 6 SSE 992,6 10 0,2
18.01.2018 06:00:00 0,5 -0,2 5 3 18 10 SSE 993,3 8 0,0
18.01.2018 05:00:00 0,6 -0,3 10 6 18 10 SSW 994,0 28 0,0
18.01.2018 04:00:00 0,8 -0,2 8 5 19 11 SW 994,2 22 0,0
18.01.2018 03:00:00 1,1 -0,2 5 3 21 11 SSW 994,3 40 0,0
18.01.2018 02:00:00 1,3 -0,2 10 5 22 12 WSW 994,3 42 0,0
18.01.2018 01:00:00 1,4 0,1 11 6 22 12 SW 994,2 44 0,0
18.01.2018 00:00:00 1,3 0,1 10 5 21 11 SW 994,0 36 0,0
17.01.2018 23:00:00 1,2 0,3 9 5 19 10 SSW 993,6 - 0,0
17.01.2018 22:00:00 1,3 0,3 11 6 19 10 SSW 993,2 10 0,0
17.01.2018 21:00:00 1,3 0,4 10 6 20 11 SW 992,7 15 0,0
17.01.2018 20:00:00 1,1 0,5 9 5 20 11 SSW 992,3 13 0,0
17.01.2018 19:00:00 1,2 0,3 9 5 19 10 SW 992,0 21 0,0
17.01.2018 18:00:00 1,3 -0,2 10 5 19 10 SW 991,4 50 0,0
17.01.2018 17:00:00 1,3 0,6 8 4 17 9 SW 990,7 11 0,0
17.01.2018 16:00:00 1,6 -0,2 9 5 17 9 SW 990,0 50 0,0
17.01.2018 15:00:00 1,7 0,1 6 3 17 9 SSW 989,2 34 0,0
17.01.2018 14:00:00 1,6 0,0 8 4 17 9 WSW 988,9 19 0,2
17.01.2018 13:00:00 0,9 0,0 5 3 16 9 WSW 988,5 3,3 0,3
17.01.2018 12:00:00 1,6 -0,5 5 3 16 9 WSW 987,9 50 0,0
17.01.2018 11:00:00 1,4 0,7 8 4 20 11 S 987,5 33 0,0
17.01.2018 10:00:00 1,3 -0,2 7 4 20 11 WSW 986,9 18 0,0
17.01.2018 09:00:00 1,1 -0,2 6 3 17 9 SW 986,4 16 0,0
17.01.2018 08:00:00 1,2 -0,3 8 4 19 10 SW 986,0 22 0,0
17.01.2018 07:00:00 1,1 -0,2 6 4 19 10 SW 985,4 24 0,0
17.01.2018 06:00:00 1,2 -0,6 7 4 17 9 SSW 985,0 43 0,0
17.01.2018 05:00:00 1,1 -0,1 7 4 22 12 W 984,8 38 0,0
17.01.2018 04:00:00 0,6 -0,1 10 5 22 12 SW 984,7 23 0,0
17.01.2018 03:00:00 0,8 -0,1 13 7 22 12 WSW 984,6 28 0,0
17.01.2018 02:00:00 0,8 0,1 13 7 21 12 SW 984,5 26 0,0
17.01.2018 01:00:00 1,4 0,7 9 5 21 12 SW 984,4 17 0,0
17.01.2018 00:00:00 1,6 0,6 10 6 20 11 SW 984,4 27 0,0
16.01.2018 23:00:00 1,9 0,9 10 5 19 11 SW 984,2 36 0,0
16.01.2018 22:00:00 2,0 1,3 10 5 20 11 SW 983,8 34 0,0
16.01.2018 21:00:00 1,9 1,3 10 6 22 12 SW 983,7 27 0,1
16.01.2018 20:00:00 2,1 1,5 8 4 22 12 SSW 983,5 8 0,2
16.01.2018 19:00:00 2,3 1,3 11 6 25 13 S 983,3 19 0,0
16.01.2018 18:00:00 2,4 1,7 11 6 25 13 SSW 983,3 10 0,1
16.01.2018 17:00:00 2,6 1,3 12 7 24 13 S 983,4 50 0,1
16.01.2018 16:00:00 2,7 1,8 11 6 27 15 S 983,3 27 0,0
16.01.2018 15:00:00 2,7 1,8 17 9 27 15 S 983,3 22 0,2
16.01.2018 14:00:00 3,2 1,7 14 8 26 14 S 983,2 38 0,0
16.01.2018 13:00:00 3,4 1,8 16 9 31 17 S 983,5 39 0,0
16.01.2018 12:00:00 3,2 1,7 15 8 31 17 S 983,8 30 0,0
16.01.2018 11:00:00 3,2 1,7 18 10 31 17 S 983,9 28 0,0
16.01.2018 10:00:00 2,9 2,2 20 11 31 17 S 983,8 23 0,0
16.01.2018 09:00:00 2,7 2,3 18 10 38 20 S 983,4 15 0,0
16.01.2018 08:00:00 2,7 2,4 19 10 44 24 S 982,9 11 0,0
16.01.2018 07:00:00 2,2 2,1 24 13 44 24 S 982,8 11 0,2
16.01.2018 06:00:00 0,6 0,5 21 11 43 23 SSE 983,2 3,8 1,8
16.01.2018 05:00:00 0,5 0,4 22 12 43 23 SSE 984,2 2,2 0,9
16.01.2018 04:00:00 0,5 0,4 20 11 43 23 SSE 985,4 3,4 0,8
16.01.2018 03:00:00 0,3 0,2 20 11 42 23 SE 987,0 2,0 1,3
16.01.2018 02:00:00 0,3 0,2 20 11 40 22 SE 988,8 2,5 0,5
16.01.2018 01:00:00 0,2 0,1 20 11 42 23 SE 990,5 4,2 0,8
16.01.2018 00:00:00 0,0 -0,1 18 10 42 23 SE 992,5 2,0 0,9
15.01.2018 23:00:00 0,0 -0,1 18 10 40 22 SE 994,3 3,5 1,0
15.01.2018 22:00:00 0,0 -0,1 22 12 40 22 SE 995,9 1,8 0,8
15.01.2018 21:00:00 0,0 -0,1 18 10 38 20 SE 997,8 3,8 0,8
15.01.2018 20:00:00 0,1 -0,3 17 9 41 22 SE 999,5 2,2 0,4
15.01.2018 19:00:00 1,1 -1,0 21 11 41 22 SSE 1000,9 7 0,0
15.01.2018 18:00:00 1,0 -1,9 16 9 39 21 SSE 1002,5 15 0,0
15.01.2018 17:00:00 0,5 -2,1 19 10 40 21 SE 1003,9 14 0,0
15.01.2018 16:00:00 0,1 -2,4 16 9 40 22 SSE 1005,6 12 0,0
15.01.2018 15:00:00 0,1 -2,6 18 10 42 23 SE 1007,0 13 0,0
15.01.2018 14:00:00 0,3 -2,4 18 10 43 23 SE 1008,5 14 0,0
15.01.2018 13:00:00 0,3 -2,7 16 9 48 26 SE 1010,1 20 0,0
15.01.2018 12:00:00 0,3 -3,6 20 11 55 30 SE 1011,9 35 0,0
15.01.2018 11:00:00 0,1 -3,8 21 11 55 30 SSE 1013,9 38 0,0
15.01.2018 10:00:00 -0,2 -3,7 23 13 54 29 SSE 1015,1 28 0,0
15.01.2018 09:00:00 -0,3 -4,0 24 13 51 28 SSE 1016,2 30 0,0
15.01.2018 08:00:00 -0,5 -3,7 17 9 48 26 SSE 1017,0 22 0,0
15.01.2018 07:00:00 -0,4 -3,8 22 12 48 26 SSE 1018,1 26 0,0
15.01.2018 06:00:00 -0,3 -3,7 22 12 42 23 SSE 1019,1 25 0,0
15.01.2018 05:00:00 -0,7 -3,4 13 7 35 19 SSE 1020,4 20 0,0
15.01.2018 04:00:00 -1,4 -4,1 15 8 32 18 SE 1021,4 19 0,0
15.01.2018 03:00:00 -1,5 -4,5 16 9 38 20 SE 1022,6 27 0,0
15.01.2018 02:00:00 -1,5 -4,8 15 8 38 20 SSE 1023,7 33 0,0
15.01.2018 01:00:00 -1,7 -4,9 16 9 36 19 SE 1024,5 25 0,0
15.01.2018 00:00:00 -1,9 -5,4 16 9 36 19 SE 1025,4 35 0,0
14.01.2018 23:00:00 -2,2 -5,7 17 9 34 18 SE 1026,4 32 0,0
14.01.2018 22:00:00 -2,1 -5,6 11 6 32 17 SSE 1027,2 30 0,0
14.01.2018 21:00:00 -2,2 -5,9 16 8 29 16 SSE 1027,7 33 0,0
14.01.2018 20:00:00 -2,1 -5,6 11 6 35 19 SE 1028,3 31 0,0
14.01.2018 19:00:00 -2,0 -5,7 16 8 35 19 SE 1028,5 39 0,0
14.01.2018 18:00:00 -1,8 -5,6 17 9 31 17 SE 1029,2 42 0,0
14.01.2018 17:00:00 -1,6 -5,3 14 8 29 16 ESE 1029,7 40 0,0
14.01.2018 16:00:00 -1,4 -5,3 11 6 32 17 SE 1029,9 37 0,0
14.01.2018 15:00:00 -1,3 -5,3 14 8 32 17 ESE 1030,3 41 0,0
14.01.2018 14:00:00 -0,8 -5,2 14 7 29 16 SE 1030,6 45 0,0
14.01.2018 13:00:00 -0,6 -4,8 11 6 29 16 SE 1031,1 43 0,0
14.01.2018 12:00:00 -0,6 -4,8 14 8 30 16 SE 1031,5 32 0,0
14.01.2018 11:00:00 -0,6 -5,2 19 10 30 16 SE 1031,9 38 0,0
14.01.2018 10:00:00 -0,5 -5,3 12 7 29 16 SE 1032,2 39 0,0
14.01.2018 09:00:00 -0,5 -4,9 13 7 25 13 SE 1032,1 36 0,0
14.01.2018 08:00:00 -0,4 -5,2 13 7 29 15 SE 1032,1 38 0,0
14.01.2018 07:00:00 -0,5 -4,7 12 6 29 16 SE 1032,3 39 0,0
14.01.2018 06:00:00 -0,4 -5,0 16 8 29 16 ESE 1032,5 45 0,0
14.01.2018 05:00:00 -0,6 -4,8 10 6 27 15 ESE 1032,6 48 0,0
14.01.2018 04:00:00 -0,6 -5,0 15 8 27 15 ESE 1033,0 50 0,0
14.01.2018 03:00:00 -0,5 -4,9 13 7 27 14 ESE 1033,4 50 0,0
14.01.2018 02:00:00 -0,5 -4,9 12 6 27 14 ESE 1033,7 50 0,0
14.01.2018 01:00:00 -0,5 -4,9 11 6 24 13 E 1033,9 50 0,0
14.01.2018 00:00:00 -0,6 -4,8 10 5 24 13 E 1034,3 50 0,0
13.01.2018 23:00:00 -0,7 -4,9 10 6 27 15 E 1034,7 50 0,0
13.01.2018 22:00:00 -0,9 -5,1 13 7 35 19 E 1034,7 50 0,0
13.01.2018 21:00:00 -1,1 -5,1 13 7 35 19 ESE 1035,0 50 0,0
13.01.2018 20:00:00 -0,7 -4,9 17 9 33 18 ESE 1035,2 50 0,0
13.01.2018 19:00:00 -0,4 -4,8 16 9 31 17 ESE 1035,2 50 0,0
13.01.2018 18:00:00 -0,3 -4,7 13 7 26 14 ESE 1035,4 50 0,0

tt = Température de l'air
td = dewpoint
ff = Vitesse du vent
fx = gusts
dd = Direction du vent
ppp = reduced air pressure
vv = visibility
rr = Quantités de précipitations

stations d'obs. à proximité